GW4118 Weather Reports


time (UTC)temp
C
wind
direction
speed
KPH
gust
KPH
rain 1hr
cm
rain 24hr
cm
rain mn
cm
humidity
%
barometer
mb
20260507081600 7 238 0.0 3.2 0.00 1.35 0.13 93 1006.6
20260507081059 7 241 0.0 3.2 0.00 1.35 0.13 93 1006.3
20260507080601 7 253 0.0 9.7 0.00 1.35 0.13 93 1006.2
20260507080114 7 49 0.0 9.7 0.00 1.35 0.13 93 1006.3
20260507075557 7 270 0.0 0.0 0.00 1.35 0.13 93 1006.4
20260507075056 7 296 0.0 6.4 0.00 1.35 0.13 93 1006.4
20260507074556 7 300 0.0 6.4 0.00 1.35 0.13 93 1006.3
20260507074055 7 335 0.0 6.4 0.00 1.35 0.13 93 1006.4
20260507073554 7 239 0.0 0.0 0.00 1.35 0.13 93 1006.4
20260507073053 7 301 0.0 0.0 0.00 1.35 0.13 93 1006.5
20260507072553 7 290 0.0 3.2 0.00 1.35 0.13 93 1006.5
20260507072052 8 253 0.0 6.4 0.00 1.35 0.13 93 1006.4
20260507071608 8 284 0.0 6.4 0.00 1.35 0.13 93 1006.6
20260507071049 8 291 0.0 3.2 0.00 1.35 0.13 94 1006.4
20260507070549 8 298 0.0 11.3 0.00 1.35 0.13 94 1006.3
20260507070049 8 277 1.6 11.3 0.00 1.35 0.13 94 1006.4
20260507065548 8 302 0.0 3.2 0.00 1.35 0.13 94 1005.9
20260507065048 8 320 0.0 9.7 0.00 1.35 0.13 93 1005.9
20260507064545 8 296 3.2 8.0 0.00 1.35 0.13 94 1005.9
20260507064044 8 256 1.6 3.2 0.00 1.35 0.13 94 1006.0
20260507063543 8 336 0.0 3.2 0.00 1.35 0.13 94 1005.9
20260507063045 8 336 0.0 3.2 0.00 1.35 0.13 94 1005.8
20260507062542 8 105 0.0 3.2 0.00 1.35 0.13 94 1005.7
20260507062041 8 321 0.0 3.2 0.00 1.35 0.13 94 1005.6
20260507061541 9 290 0.0 1.6 0.00 1.35 0.13 94 1005.7
20260507061040 9 280 0.0 3.2 0.00 1.35 0.13 94 1005.4
20260507060542 9 284 0.0 3.2 0.00 1.35 0.13 94 1005.5
20260507060044 9 305 0.0 3.2 0.00 1.35 0.13 94 1005.5
20260507055542 9 340 0.0 1.6 0.03 1.35 0.13 94 1005.2
20260507055038 9 340 0.0 3.2 0.03 1.35 0.13 94 1005.2
20260507054538 9 340 0.0 3.2 0.03 1.35 0.13 93 1005.4
20260507054037 9 340 0.0 3.2 0.03 1.35 0.13 93 1005.4
20260507053538 9 313 0.0 3.2 0.05 1.35 0.13 93 1005.3
20260507053105 9 262 0.0 3.2 0.05 1.35 0.13 93 1005.3
20260507052537 9 126 0.0 3.2 0.05 1.35 0.13 93 1004.9
20260507052035 9 43 0.0 3.2 0.05 1.35 0.13 93 1005.0
20260507051542 9 284 0.0 3.2 0.05 1.35 0.13 94 1005.1
20260507051033 10 350 0.0 3.2 0.05 1.35 0.13 94 1005.1
20260507050533 10 329 0.0 6.4 0.08 1.35 0.13 93 1005.1
20260507050036 10 305 1.6 6.4 0.13 1.35 0.13 94 1005.2
20260507045532 10 323 1.6 3.2 0.13 1.32 0.10 94 1005.4
20260507045032 10 292 0.0 3.2 0.13 1.32 0.10 93 1005.4
20260507044532 10 292 0.0 8.0 0.13 1.32 0.10 94 1005.4
20260507044029 10 293 1.6 8.0 0.13 1.32 0.10 94 1005.2
20260507043528 10 322 0.0 11.3 0.10 1.30 0.08 94 1005.2
20260507043028 10 324 1.6 11.3 0.10 1.30 0.08 93 1005.4
20260507042530 10 328 1.6 6.4 0.10 1.30 0.08 94 1005.4
20260507042026 10 281 1.6 11.3 0.10 1.30 0.08 94 1005.4
20260507041525 11 325 3.2 11.3 0.13 1.30 0.08 94 1005.4
20260507041024 11 340 1.6 9.7 0.15 1.30 0.08 94 1005.3
20260507040523 11 307 3.2 9.7 0.18 1.27 0.05 94 1005.2
20260507040027 11 241 3.2 8.0 0.18 1.22 0.00 94 1005.4
20260507035522 11 306 3.2 8.0 0.15 1.19 1.19 94 1005.4
20260507035022 11 326 1.6 6.4 0.18 1.19 1.19 94 1004.9
20260507034532 11 304 1.6 6.4 0.18 1.19 1.19 94 1004.9
20260507034021 11 307 0.0 6.4 0.20 1.19 1.19 94 1004.9
20260507033521 11 229 1.6 9.7 0.25 1.19 1.19 94 1004.9
20260507033034 11 331 1.6 11.3 0.25 1.19 1.19 93 1004.9
20260507032520 12 254 1.6 12.9 0.28 1.19 1.19 93 1004.7
20260507032021 12 288 3.2 12.9 0.28 1.19 1.19 94 1004.7
20260507031520 12 286 4.8 11.3 0.25 1.17 1.17 94 1004.6
20260507031121 12 296 1.6 11.3 0.23 1.14 1.14 94 1004.6
20260507030520 12 237 1.6 6.4 0.15 1.07 1.07 94 1004.6
20260507030025 13 288 1.6 8.0 0.13 1.04 1.04 94 1004.6
20260507025519 13 309 1.6 9.7 0.13 1.04 1.04 94 1004.4
20260507025020 13 306 0.0 9.7 0.10 1.02 1.02 94 1004.2
20260507024520 13 289 1.6 8.0 0.10 1.02 1.02 94 1004.3
20260507024019 14 291 1.6 6.4 0.05 0.97 0.97 95 1004.4
20260507023518 14 348 0.0 3.2 0.03 0.94 0.94 95 1004.1
20260507023025 14 305 1.6 3.2 0.00 0.91 0.91 95 1004.1
20260507022518 14 305 0.0 3.2 0.00 0.91 0.91 95 1004.1
20260507022018 14 315 0.0 3.2 0.00 0.91 0.91 95 1004.1
20260507021518 14 241 0.0 3.2 0.00 0.91 0.91 95 1004.0
20260507021019 14 251 0.0 3.2 0.00 0.91 0.91 95 1004.0
20260507020517 14 238 0.0 3.2 0.00 0.91 0.91 94 1003.9
20260507020021 14 278 0.0 0.0 0.00 0.91 0.91 94 1004.0
20260507015516 14 278 0.0 0.0 0.00 0.91 0.91 94 1004.0
20260507015023 14 278 0.0 3.2 0.00 0.91 0.91 94 1004.0
20260507014516 14 278 0.0 3.2 0.00 0.91 0.91 94 1004.1
20260507014014 14 278 0.0 6.4 0.00 0.91 0.91 94 1004.2
20260507013514 14 286 1.6 6.4 0.00 0.91 0.91 94 1004.2
20260507013015 14 257 1.6 6.4 0.00 0.91 0.91 94 1004.1
20260507012514 14 200 1.6 6.4 0.00 0.91 0.91 94 1004.1
20260507012015 14 217 1.6 9.7 0.00 0.91 0.91 94 1004.2
20260507011514 14 208 1.6 9.7 0.00 0.91 0.91 94 1004.1
20260507011014 14 215 3.2 12.9 0.00 0.91 0.91 94 1004.2
20260507010514 14 230 3.2 12.9 0.00 0.91 0.91 94 1004.2
20260507010022 14 204 6.4 12.9 0.00 0.91 0.91 94 1004.2
20260507005512 14 205 6.4 11.3 0.00 0.91 0.91 94 1004.2
20260507005013 14 200 3.2 11.3 0.00 0.91 0.91 94 1004.2
20260507004514 14 204 6.4 12.9 0.00 0.91 0.91 94 1004.3
20260507004012 14 188 6.4 14.5 0.00 0.91 0.91 94 1004.2
20260507003513 14 225 6.4 16.1 0.00 0.91 0.91 94 1004.1
20260507003011 14 200 6.4 16.1 0.00 0.91 0.91 94 1004.2
20260507002513 14 203 4.8 9.7 0.00 0.91 0.91 94 1004.2
20260507002011 14 170 3.2 9.7 0.00 0.91 0.91 94 1004.2
20260507001511 14 223 3.2 16.1 0.00 0.91 0.91 94 1004.2
20260507001012 14 207 8.0 16.1 0.00 0.91 0.91 94 1004.2
20260507000511 14 123 6.4 11.3 0.00 0.91 0.91 94 1004.1
20260507000015 14 160 3.2 11.3 0.00 0.94 0.91 94 1004.1
20260506235509 14 195 6.4 11.3 0.00 0.94 0.91 94 1004.1
20260506235009 14 200 3.2 8.0 0.00 0.94 0.91 94 1004.0
20260506234510 14 184 1.6 12.9 0.00 0.94 0.91 94 1004.0
20260506234009 14 188 3.2 14.5 0.00 0.94 0.91 94 1004.0
20260506233509 14 142 4.8 14.5 0.00 0.94 0.91 94 1004.0
20260506233009 14 136 6.4 16.1 0.00 0.94 0.91 95 1004.2
20260506232508 14 138 4.8 14.5 0.00 0.94 0.91 95 1004.1
20260506232009 14 144 1.6 9.7 0.03 0.94 0.91 95 1004.0
20260506231507 14 202 1.6 9.7 0.03 0.94 0.91 95 1004.1
20260506231007 14 77 1.6 14.5 0.03 0.94 0.91 95 1004.2
20260506230507 14 223 1.6 14.5 0.05 0.94 0.91 95 1004.2
20260506230007 14 128 3.2 19.3 0.05 1.07 0.91 95 1004.3
20260506225507 14 152 1.6 8.0 0.08 1.07 0.91 95 1004.3
20260506225005 14 135 0.0 17.7 0.08 1.07 0.91 95 1004.4
20260506224504 14 164 3.2 17.7 0.08 1.07 0.91 95 1004.3
20260506224007 14 205 3.2 8.0 0.08 1.07 0.91 95 1004.4
20260506223505 14 140 0.0 9.7 0.10 1.07 0.91 95 1004.6
20260506223002 14 82 1.6 9.7 0.10 1.07 0.91 95 1004.6
20260506222502 14 138 3.2 9.7 0.13 1.07 0.91 95 1004.6
20260506222000 14 158 3.2 9.7 0.10 1.04 0.89 95 1004.8
20260506221702 14 148 1.6 8.0 0.10 1.04 0.89 95 1004.8
20260506221059 14 127 3.2 11.3 0.13 1.04 0.89 95 1004.8
20260506220559 14 123 4.8 11.3 0.15 1.02 0.86 95 1004.9
20260506220059 14 107 3.2 8.0 0.18 1.02 0.86 94 1005.0
20260506215559 14 74 1.6 8.0 0.15 0.99 0.84 95 1005.1
20260506215058 15 121 3.2 8.0 0.15 0.99 0.84 95 1005.1
20260506214604 15 123 1.6 8.0 0.18 0.99 0.84 95 1005.1
20260506214157 15 79 3.2 6.4 0.20 0.99 0.84 95 1005.2
20260506213555 15 134 1.6 3.2 0.20 0.97 0.81 94 1005.3
20260506213056 15 119 1.6 3.2 0.20 0.97 0.81 95 1005.4
20260506212555 15 94 1.6 3.2 0.20 0.94 0.79 94 1005.4
20260506212055 15 115 0.0 3.2 0.20 0.94 0.79 94 1005.5
20260506211604 15 117 0.0 3.2 0.23 0.94 0.79 94 1005.5
20260506211055 15 128 1.6 3.2 0.20 0.91 0.76 94 1005.4
20260506210555 15 157 0.0 3.2 0.18 0.86 0.71 94 1005.5
20260506210056 15 95 0.0 11.3 0.15 0.84 0.69 94 1005.5
20260506205555 15 99 1.6 11.3 0.18 0.84 0.69 94 1005.5
20260506205056 15 96 1.6 6.4 0.18 0.84 0.69 94 1005.4
20260506204555 15 122 0.0 6.4 0.18 0.81 0.66 94 1005.4
20260506204053 15 128 0.0 6.4 0.15 0.79 0.64 94 1005.5
20260506203555 15 107 0.0 9.7 0.13 0.76 0.61 94 1005.4
20260506203053 15 105 0.0 9.7 0.13 0.76 0.61 94 1005.4
20260506202554 15 167 3.2 9.7 0.10 0.71 0.58 93 1005.4
20260506202053 15 110 1.6 9.7 0.10 0.71 0.58 93 1005.3
20260506201552 15 133 3.2 8.0 0.10 0.71 0.56 93 1005.5
20260506201052 15 131 0.0 9.7 0.10 0.71 0.56 93 1005.5
20260506200555 15 114 1.6 12.9 0.10 0.69 0.53 93 1005.5
20260506200101 15 141 1.6 12.9 0.10 0.69 0.53 93 1005.5
20260506195550 15 154 1.6 11.3 0.08 0.66 0.51 93 1005.6
20260506195053 15 202 1.6 11.3 0.10 0.66 0.51 93 1005.8
20260506194556 15 180 1.6 11.3 0.08 0.64 0.48 93 1005.9
20260506194049 15 167 3.2 11.3 0.10 0.64 0.48 92 1005.8
20260506193550 15 223 1.6 11.3 0.13 0.64 0.48 93 1005.8
20260506193148 15 215 1.6 11.3 0.23 0.64 0.48 93 1005.6
20260506192548 15 175 3.2 11.3 0.33 0.64 0.48 93 1005.8
20260506192051 15 136 1.6 9.7 0.36 0.64 0.48 93 1005.9
20260506191552 15 207 0.0 6.4 0.36 0.61 0.46 93 1005.9
20260506191048 15 201 0.0 6.4 0.38 0.61 0.46 93 1005.9
20260506190547 15 90 1.6 6.4 0.36 0.58 0.43 93 1005.9
20260506190046 15 148 0.0 6.4 0.38 0.58 0.43 93 1006.0
20260506185547 15 161 0.0 3.2 0.41 0.58 0.43 92 1006.1
20260506185046 15 99 0.0 3.2 0.38 0.56 0.41 92 1006.1
20260506184550 15 124 0.0 6.4 0.41 0.56 0.41 92 1006.2
20260506184046 15 106 0.0 4.8 0.38 0.53 0.38 92 1006.3
20260506183545 15 114 3.2 6.4 0.33 0.48 0.33 91 1006.6
20260506183050 15 295 0.0 3.2 0.23 0.38 0.23 90 1006.8
20260506182543 15 114 0.0 3.2 0.15 0.30 0.15 89 1006.4
20260506182043 15 114 0.0 3.2 0.13 0.28 0.13 88 1006.0
20260506181554 15 113 0.0 6.4 0.10 0.25 0.10 87 1006.1
20260506181043 15 113 0.0 6.4 0.08 0.23 0.08 86 1006.1
20260506180543 16 100 1.6 8.0 0.05 0.20 0.05 84 1006.0
20260506180103 16 114 4.8 9.7 0.03 0.18 0.03 82 1006.0
20260506175542 16 49 3.2 14.5 0.03 0.18 0.03 81 1006.0
20260506175042 17 132 3.2 14.5 0.03 0.18 0.03 79 1006.0
20260506174542 17 159 4.8 14.5 0.00 0.15 0.00 79 1006.0
20260506174041 17 113 6.4 14.5 0.00 0.15 0.00 79 1006.1
20260506173541 17 130 6.4 14.5 0.00 0.15 0.00 78 1006.1
20260506173042 17 65 6.4 12.9 0.00 0.15 0.00 78 1006.2
20260506172538 17 62 3.2 9.7 0.00 0.15 0.00 79 1006.3
20260506172038 17 135 1.6 11.3 0.00 0.15 0.00 78 1006.4
20260506171537 17 86 1.6 11.3 0.00 0.15 0.00 78 1006.5
20260506171036 17 186 3.2 12.9 0.00 0.15 0.00 77 1006.6
20260506170534 17 84 4.8 12.9 0.00 0.15 0.00 77 1006.7
20260506170034 17 107 1.6 9.7 0.00 0.15 0.00 78 1006.7
20260506165533 17 227 0.0 11.3 0.00 0.15 0.00 77 1006.8
20260506165032 17 118 4.8 11.3 0.00 0.15 0.00 77 1007.0
20260506164531 17 225 1.6 11.3 0.00 0.15 0.00 76 1007.2
20260506164029 17 98 1.6 11.3 0.00 0.15 0.00 76 1007.2
20260506163529 17 124 6.4 11.3 0.00 0.15 0.00 76 1007.5
20260506163028 17 146 1.6 9.7 0.00 0.15 0.00 76 1007.6
20260506162526 17 146 3.2 11.3 0.00 0.15 0.00 77 1007.7
20260506162026 17 96 3.2 12.9 0.00 0.15 0.00 77 1007.8
20260506161525 17 133 6.4 12.9 0.00 0.15 0.00 77 1007.8
20260506161029 17 96 6.4 11.3 0.00 0.15 0.00 78 1007.9
20260506160524 17 84 3.2 9.7 0.00 0.15 0.00 78 1008.1
20260506160025 17 55 3.2 11.3 0.00 0.15 0.00 77 1008.1
20260506155524 17 124 4.8 11.3 0.00 0.15 0.00 77 1008.2
20260506155024 17 42 3.2 9.7 0.00 0.15 0.00 77 1008.2
20260506154524 17 123 4.8 8.0 0.00 0.15 0.00 76 1008.3
20260506154024 17 131 3.2 8.0 0.00 0.15 0.00 77 1008.4
20260506153523 17 130 1.6 6.4 0.00 0.15 0.00 77 1008.3
20260506153023 17 115 1.6 9.7 0.00 0.15 0.00 77 1008.3
20260506152522 17 174 0.0 11.3 0.00 0.15 0.00 77 1008.4
20260506152022 17 111 4.8 11.3 0.00 0.15 0.00 76 1008.3
20260506151523 17 177 3.2 9.7 0.00 0.15 0.00 77 1008.3
20260506151022 17 135 1.6 9.7 0.00 0.15 0.00 77 1008.3
20260506150521 17 118 6.4 9.7 0.00 0.15 0.00 77 1008.2
20260506150020 16 96 0.0 8.0 0.00 0.15 0.00 78 1008.3
20260506145519 16 102 1.6 9.7 0.00 0.15 0.00 78 1008.2
20260506145017 16 80 4.8 9.7 0.00 0.15 0.00 79 1008.2
20260506144521 16 82 1.6 6.4 0.00 0.15 0.00 78 1008.2
20260506144016 16 165 1.6 9.7 0.00 0.15 0.00 79 1008.1
20260506143515 16 99 3.2 9.7 0.00 0.15 0.00 79 1008.0
20260506143114 16 119 1.6 9.7 0.00 0.15 0.00 80 1008.0
20260506142513 16 106 3.2 11.3 0.00 0.15 0.00 79 1008.2
20260506142012 15 73 3.2 9.7 0.00 0.15 0.00 80 1008.2
20260506141511 15 94 4.8 9.7 0.00 0.15 0.00 80 1008.2
20260506141011 15 55 1.6 9.7 0.00 0.15 0.00 80 1008.3
20260506140512 15 161 1.6 9.7 0.00 0.15 0.00 82 1008.5
20260506140009 15 103 6.4 9.7 0.00 0.15 0.00 81 1008.6
20260506135507 15 144 3.2 8.0 0.00 0.15 0.00 82 1008.6
20260506135010 14 86 3.2 8.0 0.00 0.15 0.00 81 1008.7
20260506134506 14 59 0.0 6.4 0.00 0.15 0.00 82 1008.8
20260506134005 14 94 3.2 6.4 0.00 0.15 0.00 82 1008.8
20260506133507 14 68 1.6 4.8 0.00 0.15 0.00 82 1008.8
20260506133005 14 67 1.6 8.0 0.00 0.15 0.00 82 1008.9
20260506132505 14 70 3.2 8.0 0.00 0.15 0.00 82 1008.9
20260506132005 14 74 1.6 8.0 0.00 0.15 0.00 82 1008.7
20260506131507 14 107 1.6 8.0 0.00 0.15 0.00 83 1008.6
20260506131006 13 114 1.6 6.4 0.00 0.15 0.00 83 1008.6
20260506130504 13 120 3.2 6.4 0.00 0.15 0.00 83 1008.7
20260506130004 13 87 3.2 8.0 0.00 0.15 0.00 83 1008.8
20260506125504 13 67 3.2 8.0 0.00 0.15 0.00 83 1008.7
20260506125003 13 39 1.6 6.4 0.00 0.15 0.00 82 1008.8
20260506124503 13 52 1.6 6.4 0.00 0.15 0.00 83 1008.7
20260506124003 13 133 1.6 8.0 0.00 0.15 0.00 83 1008.6
20260506123503 13 98 1.6 4.8 0.00 0.15 0.00 83 1008.8
20260506123002 13 67 3.2 8.0 0.00 0.15 0.00 83 1008.9
20260506122600 13 86 1.6 8.0 0.00 0.15 0.00 83 1008.9
20260506122101 13 139 1.6 8.0 0.00 0.15 0.00 84 1008.9
20260506121559 13 84 1.6 8.0 0.00 0.15 0.00 84 1009.0
20260506121059 12 84 0.0 6.4 0.00 0.15 0.00 85 1009.1
20260506120559 12 66 1.6 6.4 0.00 0.15 0.00 86 1009.0
20260506120101 12 65 3.2 6.4 0.00 0.15 0.00 86 1009.3
20260506115600 12 52 0.0 8.0 0.00 0.15 0.00 86 1009.4
20260506115057 12 66 4.8 8.0 0.00 0.15 0.00 86 1009.3
20260506114556 12 93 1.6 8.0 0.00 0.15 0.00 86 1009.4
20260506114057 12 69 1.6 8.0 0.00 0.15 0.00 86 1009.4
20260506113557 12 92 0.0 6.4 0.00 0.15 0.00 86 1009.6
20260506113057 12 90 3.2 6.4 0.00 0.15 0.00 87 1009.5
20260506112554 12 94 1.6 8.0 0.00 0.15 0.00 86 1009.7
20260506112054 12 121 3.2 8.0 0.00 0.15 0.00 86 1009.6
20260506111555 12 80 1.6 8.0 0.00 0.15 0.00 87 1009.5
20260506111056 12 98 1.6 8.0 0.00 0.15 0.00 87 1009.6
20260506110553 12 130 1.6 8.0 0.00 0.15 0.00 88 1009.7
20260506110052 12 117 3.2 8.0 0.00 0.15 0.00 88 1009.6
20260506105551 11 103 0.0 6.4 0.00 0.15 0.00 89 1009.5
20260506105053 11 140 1.6 6.4 0.00 0.15 0.00 89 1009.4
20260506104555 11 83 1.6 3.2 0.00 0.15 0.00 89 1009.4
20260506104048 11 111 0.0 1.6 0.00 0.15 0.00 90 1009.2
20260506103547 11 78 0.0 1.6 0.00 0.15 0.00 90 1009.3
20260506103046 11 78 0.0 3.2 0.00 0.15 0.00 90 1009.2
20260506102548 11 82 0.0 3.2 0.00 0.15 0.00 90 1009.3
20260506102045 11 82 0.0 3.2 0.00 0.15 0.00 90 1009.3
20260506101546 11 82 0.0 3.2 0.00 0.15 0.00 90 1009.1
20260506101047 11 82 0.0 3.2 0.00 0.15 0.00 90 1009.1
20260506100544 11 82 0.0 3.2 0.00 0.15 0.00 90 1009.0
20260506100044 11 74 1.6 3.2 0.00 0.15 0.00 90 1009.1
20260506095545 11 74 1.6 3.2 0.00 0.15 0.00 91 1009.3
20260506095044 11 96 0.0 3.2 0.00 0.15 0.00 91 1009.2
20260506094540 11 80 0.0 3.2 0.00 0.15 0.00 92 1009.4
20260506094038 11 117 0.0 3.2 0.00 0.15 0.00 92 1009.4
20260506093537 11 106 0.0 3.2 0.00 0.15 0.00 92 1009.3
20260506093041 11 103 0.0 3.2 0.00 0.15 0.00 92 1009.3
20260506092536 11 132 1.6 3.2 0.00 0.15 0.00 92 1009.2
20260506092035 11 126 0.0 3.2 0.00 0.15 0.00 92 1009.1
20260506091535 11 84 0.0 3.2 0.00 0.15 0.00 92 1008.9
20260506091034 11 117 0.0 3.2 0.00 0.15 0.00 92 1008.8
20260506090535 11 67 1.6 3.2 0.00 0.15 0.00 92 1008.9
20260506090037 11 46 1.6 1.6 0.00 0.15 0.00 92 1009.0
20260506085534 11 33 0.0 1.6 0.00 0.15 0.00 92 1009.0
20260506085034 12 48 0.0 1.6 0.00 0.15 0.00 92 1009.0
20260506084537 12 179 0.0 1.6 0.00 0.15 0.00 92 1008.8
20260506084033 12 179 0.0 3.2 0.00 0.15 0.00 92 1008.8
20260506083534 12 179 0.0 3.2 0.00 0.15 0.00 92 1008.8
20260506083036 12 179 0.0 3.2 0.00 0.15 0.00 91 1008.8
20260506082531 12 145 0.0 3.2 0.00 0.15 0.00 92 1008.9
20260506082030 12 148 0.0 3.2 0.00 0.15 0.00 91 1009.1